[[{"header":{"parameterUnit":"m.s-1","parameterCategory":1,"la1":30.2991,"la2":30.254,"lo1":-89.0895,"lo2":-89.0444,"dy":0.0017,"dx":0.0017,"nx":28,"ny":28,"refTime":"2025-05-27T03:00:00:Z","depth":0,"parameterNumber":2,"parameterNumberName":"U-component_of_WINDS"},"data":[0,0,0,0,0,0,0,0,0,0,0,0,0,0,0,0,0,0,0,0,0,0,0,0,0,0,0,0,0,0,0,0,0,0,0,0,0,0,0,0,0,0,0,0,0,0,0,0,0,0,0,0,0,0,0,0,0,0,0.1321,0.1323,0,0.1485,0.1487,0.1489,0.1629,0.163,0.1632,0.1633,0.1802,0.1805,0.1808,0,0,0,0,0,0,0,0,0,0,0,0,0,0.1134,0.1137,0.1321,0.1323,0.1325,0.1484,0.1487,0.1489,0.1629,0.163,0.1632,0.1634,0.1801,0.1805,0.1808,0,0,0,0,0,0,0,0,0,0,0,0,0,0.1248,0.1137,0.1321,0.1414,0.1424,0.1484,0.1487,0.149,0.1628,0.1631,0.1633,0.1635,0.18,0.1804,0.1809,0.179,0,0,0.1823,0.1824,0,0,0,0,0,0,0,0,0.1241,0.1255,0.1398,0.1408,0.1419,0.1539,0.1483,0.159,0.1628,0.1551,0.1634,0.1636,0.1713,0.1724,0.175,0.1798,0.1805,0.1823,0.1826,0.1828,0.1829,0,0,0,0,0,0,0,0.1233,0.1248,0.1386,0.14,0.1413,0.1449,0.1468,0.1504,0.1616,0.1558,0.1568,0.1586,0.1719,0.1745,0.1755,0.1807,0.1823,0.1827,0.183,0.1831,0.1852,0.185,0,0,0,0,0,0,0.1211,0.1241,0.1381,0.1391,0.1334,0.1451,0.1472,0.1498,0.1617,0.1637,0.1583,0.1591,0.1736,0.1749,0.1761,0.1749,0.1828,0.1832,0.1834,0.1854,0.1851,0.1849,0,0,0,0,0,0,0.1206,0.1222,0.1374,0.1319,0.1341,0.1451,0.148,0.15,0.1527,0.1636,0.1657,0.1589,0.1739,0.1755,0.1782,0.1757,0.1834,0.1838,0.1857,0.1853,0.185,0.1723,0,0,0,0,0,0,0.12,0.1219,0.1212,0.1318,0.1343,0.1391,0.1478,0.1502,0.1534,0.1546,0.1647,0.1666,0.1742,0.1775,0.1787,0.1765,0.1842,0.1859,0.1855,0.1851,0.173,0.1716,0.1704,0,0,0,0,0,0.1193,0.1169,0.1211,0.1227,0.1337,0.1389,0.1404,0.1491,0.1531,0.1526,0.1597,0.1663,0.1758,0.1776,0.1791,0.177,0.1861,0.1856,0.1851,0.1736,0.1718,0.1704,0,0,0,0,0,0,0.1057,0.1184,0.1232,0.1242,0.1303,0.1412,0.1408,0.1469,0.1521,0.153,0.1637,0.1658,0.1675,0.1725,0.1744,0.176,0.1819,0.1816,0.1726,0.171,0.1697,0.1685,0.1845,0,0,0,0,0,0.1028,0.1059,0.1169,0.1167,0.1196,0.1296,0.1322,0.1384,0.1453,0.148,0.1552,0.1617,0.1662,0.1689,0.1736,0.1738,0.1764,0.1731,0.1718,0.1707,0.1704,0.1712,0.1699,0.1833,0.1833,0.1833,0,0,0.0968,0.1042,0.1055,0.1142,0.1197,0.1228,0.1317,0.1346,0.1371,0.1484,0.1515,0.1571,0.165,0.1665,0.1676,0.1708,0.1673,0.1701,0.1691,0.1694,0.1705,0.1693,0.1681,0.1829,0.183,0.1831,0,0,0.0876,0.0934,0.094,0.0994,0.1077,0.1145,0.1146,0.1247,0.1288,0.1321,0.1408,0.144,0.1514,0.1568,0.1605,0.1537,0.1601,0.1549,0.148,0.1487,0.1476,0.1468,0.1445,0.1436,0.1546,0.1546,0.1545,0,0.0792,0.0841,0.0935,0.096,0.0996,0.1102,0.111,0.1158,0.1251,0.1275,0.131,0.1408,0.1468,0.1499,0.1483,0.1509,0.1516,0.1538,0.147,0.1462,0.1456,0.1436,0.1427,0.1539,0.154,0.154,0.1541,0,0.0734,0.0768,0.0763,0.0852,0.0888,0.0903,0.1002,0.1027,0.1087,0.1152,0.1185,0.1262,0.1328,0.134,0.1398,0.1381,0.1398,0.145,0.1512,0.1435,0.1418,0.1411,0.1529,0.1532,0.1534,0.1535,0,0,0.0558,0.0701,0.0698,0.0741,0.0842,0.087,0.0892,0.0957,0.0978,0.104,0.1062,0.1125,0.1174,0.1216,0.1282,0.1288,0.1232,0.134,0.1344,0.1318,0.122,0.118,0.1169,0.1275,0.1274,0.1273,0.1214,0,0.0483,0.0528,0.0615,0.0632,0.0666,0.0768,0.0788,0.0853,0.0914,0.0953,0.1022,0.1065,0.1126,0.1153,0.1163,0.1236,0.1214,0.1242,0.1299,0.13,0.1276,0.116,0.1118,0.1058,0.1207,0.1206,0.1206,0,0.04,0.0457,0.0478,0.058,0.0597,0.0613,0.0681,0.0716,0.0794,0.0838,0.0887,0.096,0.0991,0.1047,0.1093,0.111,0.1139,0.1179,0.1179,0.1187,0.1247,0.1167,0.104,0.1031,0.1196,0.1196,0.1197,0,0.0272,0.0354,0.0378,0.0411,0.053,0.0539,0.0589,0.0669,0.0703,0.0763,0.0787,0.085,0.0884,0.0932,0.1021,0.1053,0.1058,0.1121,0.1097,0.1095,0.1093,0.1092,0.097,0.111,0.111,0.111,0.1111,0,0.0178,0.0187,0.0322,0.0336,0.035,0.0452,0.0463,0.0523,0.0594,0.0623,0.0716,0.0742,0.0858,0.0898,0.0968,0.0997,0.1011,0.105,0.1068,0.1041,0.1037,0.1062,0.1069,0.1108,0.1109,0.1109,0.1109,0,0.0036,0.0126,0.0159,0.027,0.0298,0.0304,0.04,0.0419,0.0488,0.0524,0.0539,0.0646,0.0699,0.0792,0.0871,0.0919,0.0933,0.0965,0.0907,0.0918,0.089,0.0892,0.078,0.0772,0.0916,0.0914,0.0913,0,-0.0029,-0.002,0.0093,0.0119,0.0166,0.0207,0.0244,0.0345,0.0379,0.047,0.0478,0.0538,0.0592,0.0671,0.0757,0.0819,0.0854,0.0811,0.0863,0.0837,0.0855,0.0853,0.0856,0.0798,0.0796,0.0794,0.0793,0,-0.0154,-0.0109,-0.0061,0.0003,0.0044,0.01,0.0161,0.0178,0.0293,0.0327,0.0382,0.0424,0.0506,0.0565,0.064,0.0694,0.0763,0.0776,0.0774,0.0747,0.0713,0.0733,0.0875,0.0778,0.0779,0.078,0.0781,0.0782,-0.0259,-0.0245,-0.0163,-0.0111,-0.0054,0.0001,0.0026,0.0098,0.0146,0.022,0.0278,0.0329,0.041,0.0518,0.0568,0.0611,0.0643,0.0639,0.0639,0.0636,0.0627,0.0706,0.0625,0.0625,0.0626,0.0626,0.0627,0,-0.0378,-0.032,-0.0273,-0.019,-0.0149,-0.0087,-0.0015,0.0016,0.0059,0.0129,0.018,0.0245,0.0304,0.0395,0.0462,0.0479,0.0513,0.0493,0.0493,0.0505,0.0593,0.0589,0.0465,0.0465,0.0465,0.0465,0.0465,0.0465,-0.0436,-0.0407,-0.0352,-0.0293,-0.0233,-0.0183,-0.0147,-0.0094,-0.0038,0.003,0.008,0.0139,0.0219,0.0293,0.035,0.0376,0.0397,0.0367,0.0403,0.0484,0.0499,0.0513,0.0509,0.0371,0.0371,0.0312,0.0311,0.0311]},{"header":{"parameterUnit":"m.s-1","parameterCategory":1,"la1":30.2991,"la2":30.254,"lo1":-89.0895,"lo2":-89.0444,"dy":0.0017,"dx":0.0017,"nx":28,"ny":28,"refTime":"2025-05-27T03:00:00:Z","depth":0,"parameterNumber":3,"parameterNumberName":"V-component_of_WINDS"},"data":[0,0,0,0,0,0,0,0,0,0,0,0,0,0,0,0,0,0,0,0,0,0,0,0,0,0,0,0,0,0,0,0,0,0,0,0,0,0,0,0,0,0,0,0,0,0,0,0,0,0,0,0,0,0,0,0,0,0,0.4349,0.4351,0,0.4509,0.4511,0.4513,0.457,0.4569,0.4569,0.4568,0.473,0.4735,0.474,0,0,0,0,0,0,0,0,0,0,0,0,0,0.4093,0.4097,0.4349,0.4351,0.4353,0.4509,0.4511,0.4513,0.457,0.4569,0.4568,0.4568,0.4728,0.4734,0.474,0,0,0,0,0,0,0,0,0,0,0,0,0,0.4223,0.4099,0.4349,0.44,0.4406,0.4508,0.4511,0.4514,0.457,0.4569,0.4568,0.4567,0.4727,0.4734,0.4741,0.4803,0,0,0.4763,0.4766,0,0,0,0,0,0,0,0,0.4216,0.4233,0.4391,0.4397,0.4404,0.4519,0.448,0.4611,0.457,0.4508,0.4568,0.4567,0.466,0.4673,0.4705,0.481,0.4817,0.4764,0.4768,0.4771,0.4773,0,0,0,0,0,0,0,0.4207,0.4226,0.4412,0.4393,0.4401,0.4415,0.4433,0.4505,0.4587,0.4513,0.4518,0.4536,0.4664,0.4698,0.4709,0.482,0.4763,0.477,0.4774,0.4777,0.4988,0.4989,0,0,0,0,0,0,0.4189,0.4218,0.4407,0.4417,0.4306,0.4421,0.444,0.4483,0.4586,0.4601,0.4537,0.4538,0.4686,0.47,0.4715,0.4798,0.4771,0.4778,0.4782,0.4987,0.4988,0.499,0,0,0,0,0,0,0.4184,0.4206,0.4401,0.4319,0.4345,0.4426,0.4473,0.4486,0.452,0.4604,0.4619,0.4556,0.4686,0.4705,0.4782,0.4804,0.4781,0.4788,0.4985,0.4987,0.4989,0.4961,0,0,0,0,0,0,0.4176,0.4203,0.4227,0.4319,0.4349,0.4465,0.4474,0.449,0.4533,0.4536,0.4626,0.464,0.4686,0.477,0.4789,0.4814,0.4793,0.4984,0.4986,0.4988,0.4961,0.4962,0.4963,0,0,0,0,0,0.4167,0.4212,0.4228,0.4251,0.4381,0.4466,0.4483,0.4536,0.4534,0.456,0.4614,0.4637,0.4798,0.4778,0.4799,0.4826,0.4983,0.4986,0.4988,0.496,0.4962,0.4963,0,0,0,0,0,0,0.4119,0.4225,0.4244,0.432,0.4384,0.4475,0.4509,0.4535,0.4599,0.46,0.4662,0.4682,0.4754,0.4797,0.4773,0.4894,0.4892,0.4899,0.4863,0.4865,0.4867,0.4856,0.4799,0,0,0,0,0,0.4118,0.4178,0.4267,0.4325,0.4356,0.4427,0.4466,0.4501,0.4569,0.4596,0.4655,0.472,0.4786,0.4827,0.4892,0.4966,0.4989,0.4996,0.4997,0.4998,0.5004,0.505,0.5056,0.4999,0.4999,0.4999,0,0,0.4115,0.418,0.4214,0.4318,0.4371,0.4433,0.4449,0.4513,0.456,0.4605,0.4683,0.4729,0.4805,0.4882,0.4919,0.492,0.5024,0.5001,0.5001,0.5007,0.5054,0.5059,0.5064,0.5001,0.5001,0.5,0,0,0.4142,0.4196,0.4254,0.4307,0.4389,0.4436,0.4449,0.4538,0.4571,0.4649,0.4686,0.4742,0.4852,0.4907,0.4949,0.4999,0.5025,0.5018,0.5026,0.507,0.5075,0.5079,0.5101,0.5108,0.5024,0.5024,0.5023,0,0.4129,0.4224,0.4279,0.4343,0.4388,0.4434,0.4493,0.4542,0.4639,0.467,0.467,0.4812,0.4866,0.4959,0.4971,0.5002,0.5022,0.501,0.507,0.5075,0.508,0.5101,0.5109,0.5023,0.5023,0.5023,0.5023,0,0.4205,0.427,0.4306,0.4402,0.4451,0.4511,0.4577,0.462,0.4651,0.4699,0.478,0.4847,0.4928,0.4951,0.4981,0.5049,0.5048,0.5058,0.5058,0.5083,0.5105,0.5113,0.5021,0.5021,0.5022,0.5022,0,0,0.4206,0.4334,0.4346,0.4392,0.4486,0.4538,0.4601,0.4682,0.4719,0.4785,0.4841,0.4935,0.4946,0.4993,0.503,0.5068,0.5109,0.5075,0.5078,0.5082,0.5192,0.5187,0.5195,0.5125,0.5127,0.5128,0.5187,0,0.4248,0.4365,0.4418,0.4511,0.4574,0.4619,0.4675,0.4739,0.4785,0.4845,0.4896,0.4963,0.4971,0.5,0.504,0.5096,0.5133,0.5092,0.518,0.5183,0.5164,0.5206,0.5199,0.5251,0.5195,0.5197,0.5198,0,0.4313,0.4382,0.4482,0.4573,0.4601,0.465,0.473,0.4786,0.486,0.4892,0.4946,0.4982,0.5052,0.5045,0.5143,0.5114,0.5153,0.5186,0.5189,0.5202,0.5194,0.5223,0.5269,0.5278,0.5211,0.521,0.5209,0,0.4308,0.4426,0.4502,0.4539,0.4645,0.468,0.4725,0.4799,0.4845,0.4914,0.4946,0.5021,0.5063,0.5121,0.5177,0.5166,0.5271,0.5268,0.5301,0.53,0.5323,0.5321,0.5379,0.5342,0.5342,0.5342,0.5341,0,0.4351,0.4412,0.4502,0.4549,0.4619,0.468,0.4747,0.4796,0.4862,0.492,0.4962,0.5015,0.5084,0.5147,0.519,0.5268,0.5285,0.5313,0.5325,0.5312,0.5309,0.5341,0.534,0.5344,0.5343,0.5343,0.5343,0,0.4358,0.4421,0.4508,0.4603,0.4628,0.4676,0.4757,0.4805,0.4854,0.4928,0.4948,0.5025,0.5101,0.5162,0.5261,0.529,0.5373,0.5383,0.5348,0.5355,0.5386,0.5384,0.5469,0.5485,0.5433,0.5433,0.5434,0,0.4383,0.4431,0.4533,0.4576,0.4622,0.4689,0.4738,0.48,0.4848,0.4939,0.4977,0.5056,0.5124,0.5244,0.5308,0.5385,0.5401,0.5425,0.5412,0.5399,0.5406,0.5404,0.5411,0.5427,0.5428,0.5428,0.5428,0,0.4422,0.4451,0.452,0.4601,0.4658,0.4724,0.4791,0.4824,0.4898,0.495,0.503,0.5083,0.5186,0.5266,0.535,0.5397,0.5426,0.5431,0.5444,0.5433,0.5412,0.5428,0.5356,0.543,0.543,0.5429,0.5429,0.5429,0.4441,0.4488,0.4568,0.4644,0.4702,0.4764,0.4816,0.4872,0.494,0.5031,0.5062,0.5146,0.5222,0.5338,0.5386,0.5452,0.5455,0.5471,0.5476,0.5481,0.5482,0.5399,0.5467,0.5467,0.5467,0.5467,0.5467,0,0.4485,0.4539,0.4609,0.4704,0.4764,0.4787,0.4863,0.4913,0.4986,0.5055,0.5122,0.5215,0.5294,0.5365,0.5447,0.5487,0.5503,0.5507,0.5506,0.5518,0.5472,0.5456,0.5493,0.5493,0.5493,0.5493,0.5493,0.5493,0.4515,0.4597,0.4637,0.4748,0.4802,0.4886,0.4928,0.4987,0.5043,0.5147,0.5213,0.526,0.5331,0.5419,0.5493,0.5512,0.5542,0.5544,0.5566,0.5523,0.552,0.5517,0.5502,0.5548,0.5549,0.5607,0.5607,0.5608]}]]